{"data":{"norad_id":68442,"intl_designator":"2026-067AC","name":"NUSAT-54 (BRANCA MARQU*)","alt_names":[],"object_type":"PAYLOAD","status":"ACTIVE","operator":null,"country":"ARGN","launch_date":"2026-03-30","launch_site_code":"AFWTR","launch_vehicle":null,"mission":null,"orbit_class":"UNKNOWN","rcs_meters":null,"size_class":null,"mass_kg":null,"dimensions":null,"purposes":[],"wikipedia_slug":null,"has_3d_model":false,"image_url":null,"decayed_at":null,"tle_current":{"epoch":"2026-09-20T03:41:53.502144Z","epoch_age_seconds":98823,"freshness":"FRESH","line1":"1 68442U 26067AC  26263.15409146  .00003811  00000+0  18777-3 0  9999","line2":"2 68442  97.4648 220.1986 0006248  95.5338 264.6609 15.18545611 26340","mean_motion":15.18545611,"eccentricity":0.0006248,"inclination_deg":97.4648,"raan_deg":220.1986,"arg_perigee_deg":95.5338,"mean_anomaly_deg":264.6609,"bstar":0.00018777,"rev_number":2634,"period_min":94.827576436886,"perigee_km":505.9314829556,"apogee_km":514.53919302915,"semimajor_km":6888.3723379924,"source":"CELESTRAK","updated_at":"2026-09-20T09:00:24.205667Z"}}}